| time (UTC) | temp F | wind direction | speed MPH | gust MPH | rain 1hr in | rain 24hr in | rain mn in | humidity % | barometer mb |
| 20260901204804 | 62 | 284 | 15.0 | 20.0 | 0.00 | 1.22 | 0.09 | 81 | 1012.0 |
| 20260901204607 | 61 | 278 | 15.0 | 19.0 | 0.00 | 0.09 | 0.09 | 81 | 1012.0 |
| 20260901204304 | 62 | 284 | 16.0 | 18.0 | 0.00 | 1.22 | 0.09 | 81 | 1012.0 |
| 20260901203305 | 62 | 297 | 12.0 | 21.0 | 0.00 | 1.50 | 0.09 | 81 | 1012.0 |
| 20260901203108 | 61 | 283 | 16.0 | 21.0 | 0.00 | 0.09 | 0.09 | 80 | 1011.8 |
| 20260901201804 | 62 | 296 | 18.0 | 23.0 | 0.00 | 1.40 | 0.09 | 81 | 1011.8 |
| 20260901201605 | 62 | 310 | 14.0 | 23.0 | 0.00 | 0.09 | 0.09 | 81 | 1011.7 |
| 20260901200804 | 63 | 284 | 18.0 | 23.0 | 0.00 | 1.40 | 0.09 | 81 | 1011.8 |
| 20260901200304 | 63 | 286 | 19.0 | 23.0 | 0.00 | 1.40 | 0.09 | 81 | 1011.8 |
| 20260901200107 | 62 | 290 | 14.0 | 22.0 | 0.00 | 0.09 | 0.09 | 80 | 1011.7 |
| 20260901194804 | 63 | 289 | 17.0 | 20.0 | 0.00 | 1.31 | 0.09 | 81 | 1011.7 |
| 20260901194609 | 62 | 283 | 14.0 | 20.0 | 0.00 | 0.09 | 0.09 | 80 | 1011.7 |
| 20260901194303 | 63 | 292 | 13.0 | 20.0 | 0.00 | 1.31 | 0.09 | 81 | 1011.7 |
| 20260901193304 | 63 | 291 | 14.0 | 20.0 | 0.00 | 1.31 | 0.09 | 81 | 1011.6 |
| 20260901193106 | 62 | 251 | 12.0 | 19.0 | 0.00 | 0.09 | 0.09 | 80 | 1011.6 |
| 20260901191804 | 63 | 295 | 11.0 | 18.0 | 0.00 | 1.31 | 0.09 | 81 | 1011.6 |
| 20260901191604 | 62 | 277 | 11.0 | 18.0 | 0.00 | 0.09 | 0.09 | 80 | 1011.5 |
| 20260901191305 | 63 | 293 | 14.0 | 17.0 | 0.00 | 1.31 | 0.09 | 81 | 1011.6 |
| 20260901190804 | 63 | 292 | 12.0 | 18.0 | 0.00 | 1.58 | 0.09 | 81 | 1011.6 |
| 20260901190110 | 62 | 289 | 13.0 | 17.0 | 0.00 | 0.09 | 0.09 | 80 | 1011.7 |
| 20260901184804 | 63 | 286 | 14.0 | 16.0 | 0.00 | 1.58 | 0.09 | 80 | 1011.5 |
| 20260901184608 | 62 | 281 | 12.0 | 16.0 | 0.00 | 0.12 | 0.09 | 80 | 1011.4 |
| 20260901184304 | 63 | 288 | 13.0 | 16.0 | 0.00 | 1.58 | 0.09 | 81 | 1011.4 |
| 20260901183123 | 63 | 316 | 9.0 | 19.0 | 0.00 | 0.12 | 0.09 | 80 | 1011.2 |
| 20260901181605 | 63 | 297 | 12.0 | 17.0 | 0.00 | 0.12 | 0.09 | 80 | 1011.2 |
| 20260901181304 | 63 | 294 | 14.0 | 17.0 | 0.00 | 1.61 | 0.09 | 80 | 1011.2 |
| 20260901180803 | 63 | 285 | 12.0 | 16.0 | 0.00 | 1.61 | 0.09 | 80 | 1011.2 |
| 20260901180304 | 63 | 285 | 12.0 | 17.0 | 0.00 | 1.61 | 0.09 | 80 | 1011.2 |
| 20260901180108 | 62 | 305 | 12.0 | 17.0 | 0.00 | 0.12 | 0.09 | 80 | 1011.2 |
| 20260901174607 | 62 | 278 | 11.0 | 16.0 | 0.00 | 0.12 | 0.09 | 79 | 1011.1 |
| 20260901174304 | 63 | 283 | 12.0 | 15.0 | 0.00 | 1.61 | 0.09 | 80 | 1011.2 |
| 20260901173804 | 63 | 294 | 13.0 | 15.0 | 0.00 | 1.61 | 0.09 | 80 | 1011.2 |
| 20260901173304 | 63 | 291 | 12.0 | 17.0 | 0.00 | 1.61 | 0.09 | 79 | 1011.3 |
| 20260901173155 | 62 | 290 | 13.0 | 17.0 | 0.00 | 0.12 | 0.09 | 79 | 1011.2 |
| 20260901171804 | 63 | 302 | 12.0 | 18.0 | 0.00 | 1.61 | 0.09 | 79 | 1011.1 |
| 20260901171606 | 63 | 296 | 13.0 | 18.0 | 0.00 | 0.12 | 0.09 | 78 | 1011.1 |
| 20260901171304 | 63 | 292 | 11.0 | 18.0 | 0.00 | 1.61 | 0.09 | 79 | 1011.0 |
| 20260901170804 | 64 | 302 | 13.0 | 18.0 | 0.00 | 1.86 | 0.09 | 78 | 1011.1 |
| 20260901170108 | 63 | 300 | 17.0 | 20.0 | 0.00 | 0.12 | 0.09 | 78 | 1011.1 |
| 20260901164804 | 64 | 286 | 14.0 | 18.0 | 0.00 | 1.76 | 0.09 | 77 | 1010.9 |
| 20260901164610 | 63 | 300 | 13.0 | 18.0 | 0.00 | 0.12 | 0.09 | 77 | 1010.9 |
| 20260901163803 | 64 | 302 | 14.0 | 18.0 | 0.00 | 1.76 | 0.09 | 77 | 1010.9 |
| 20260901163304 | 64 | 288 | 13.0 | 17.0 | 0.00 | 1.76 | 0.09 | 76 | 1010.8 |
| 20260901163119 | 64 | 300 | 13.0 | 17.0 | 0.00 | 0.12 | 0.09 | 76 | 1010.8 |
| 20260901161804 | 65 | 285 | 14.0 | 20.0 | 0.00 | 1.76 | 0.09 | 75 | 1010.8 |
| 20260901161609 | 65 | 269 | 13.0 | 17.0 | 0.00 | 0.12 | 0.09 | 74 | 1010.8 |
| 20260901161304 | 65 | 286 | 13.0 | 17.0 | 0.00 | 1.67 | 0.09 | 74 | 1010.8 |
| 20260901160804 | 65 | 288 | 13.0 | 16.0 | 0.00 | 1.67 | 0.09 | 74 | 1010.7 |
| 20260901160304 | 66 | 282 | 14.0 | 18.0 | 0.00 | 1.67 | 0.09 | 73 | 1010.6 |
| 20260901160108 | 65 | 289 | 12.0 | 18.0 | 0.00 | 0.12 | 0.09 | 73 | 1010.6 |
| 20260901154804 | 66 | 283 | 13.0 | 17.0 | 0.00 | 1.67 | 0.09 | 73 | 1010.6 |
| 20260901154607 | 66 | 291 | 15.0 | 18.0 | 0.00 | 0.20 | 0.09 | 73 | 1010.6 |
| 20260901154304 | 66 | 290 | 15.0 | 18.0 | 0.00 | 1.67 | 0.09 | 74 | 1010.5 |
| 20260901153804 | 66 | 290 | 14.0 | 16.0 | 0.00 | 1.68 | 0.09 | 73 | 1010.5 |
| 20260901153304 | 66 | 290 | 13.0 | 16.0 | 0.00 | 1.69 | 0.09 | 74 | 1010.5 |
| 20260901153106 | 66 | 272 | 12.0 | 15.0 | 0.00 | 0.20 | 0.09 | 73 | 1010.4 |
| 20260901151804 | 67 | 290 | 13.0 | 15.0 | 0.00 | 2.12 | 0.09 | 72 | 1010.5 |
| 20260901151612 | 66 | 273 | 11.0 | 17.0 | 0.00 | 0.20 | 0.09 | 72 | 1010.5 |
| 20260901151304 | 67 | 286 | 13.0 | 17.0 | 0.00 | 2.13 | 0.09 | 73 | 1010.5 |
| 20260901150804 | 67 | 291 | 12.0 | 16.0 | 0.00 | 2.13 | 0.09 | 73 | 1010.5 |
| 20260901150304 | 66 | 289 | 13.0 | 17.0 | 0.00 | 2.15 | 0.09 | 73 | 1010.6 |
| 20260901150108 | 66 | 264 | 12.0 | 17.0 | 0.00 | 0.20 | 0.09 | 73 | 1010.5 |
| 20260901144804 | 67 | 292 | 13.0 | 17.0 | 0.00 | 2.31 | 0.09 | 73 | 1010.5 |
| 20260901144606 | 67 | 283 | 14.0 | 17.0 | 0.00 | 0.26 | 0.09 | 72 | 1010.4 |
| 20260901143804 | 67 | 291 | 14.0 | 17.0 | 0.00 | 2.35 | 0.09 | 74 | 1010.5 |
| 20260901143304 | 67 | 299 | 12.0 | 17.0 | 0.00 | 2.35 | 0.09 | 74 | 1010.5 |
| 20260901143110 | 67 | 293 | 10.0 | 14.0 | 0.00 | 0.26 | 0.09 | 73 | 1010.4 |
| 20260901141804 | 67 | 293 | 9.0 | 13.0 | 0.00 | 2.35 | 0.09 | 75 | 1010.3 |
| 20260901141617 | 66 | 287 | 8.0 | 15.0 | 0.00 | 0.26 | 0.09 | 74 | 1010.3 |
| 20260901141304 | 66 | 298 | 11.0 | 14.0 | 0.00 | 2.35 | 0.09 | 74 | 1010.3 |
| 20260901140804 | 66 | 285 | 13.0 | 15.0 | 0.00 | 2.35 | 0.09 | 75 | 1010.4 |
| 20260901140107 | 66 | 289 | 10.0 | 17.0 | 0.00 | 0.26 | 0.09 | 74 | 1010.4 |
| 20260901134606 | 66 | 283 | 12.0 | 16.0 | 0.00 | 0.36 | 0.09 | 74 | 1010.3 |
| 20260901134304 | 67 | 279 | 13.0 | 16.0 | 0.00 | 2.35 | 0.09 | 74 | 1010.4 |
| 20260901133803 | 67 | 276 | 10.0 | 14.0 | 0.00 | 2.35 | 0.09 | 75 | 1010.3 |
| 20260901133304 | 67 | 281 | 13.0 | 16.0 | 0.00 | 2.37 | 0.09 | 75 | 1010.4 |
| 20260901133106 | 66 | 283 | 13.0 | 16.0 | 0.00 | 0.36 | 0.09 | 75 | 1010.3 |
| 20260901131804 | 66 | 283 | 10.0 | 15.0 | 0.00 | 2.39 | 0.09 | 76 | 1010.4 |
| 20260901131609 | 66 | 285 | 11.0 | 15.0 | 0.00 | 0.36 | 0.09 | 76 | 1010.3 |
| 20260901131304 | 67 | 280 | 13.0 | 14.0 | 0.00 | 2.40 | 0.09 | 76 | 1010.4 |
| 20260901130804 | 66 | 279 | 12.0 | 15.0 | 0.00 | 2.43 | 0.09 | 75 | 1010.4 |
| 20260901130304 | 66 | 278 | 11.0 | 14.0 | 0.00 | 2.44 | 0.09 | 77 | 1010.4 |
| 20260901130110 | 66 | 260 | 10.0 | 14.0 | 0.00 | 0.36 | 0.09 | 77 | 1010.3 |
| 20260901124804 | 66 | 265 | 9.0 | 13.0 | 0.00 | 2.46 | 0.09 | 76 | 1010.3 |
| 20260901124605 | 66 | 268 | 9.0 | 13.0 | 0.00 | 0.37 | 0.09 | 76 | 1010.3 |
| 20260901124304 | 66 | 271 | 8.0 | 13.0 | 0.00 | 2.46 | 0.09 | 77 | 1010.3 |
| 20260901123804 | 66 | 286 | 10.0 | 14.0 | 0.00 | 2.46 | 0.09 | 78 | 1010.2 |
| 20260901123304 | 66 | 281 | 10.0 | 15.0 | 0.00 | 2.46 | 0.09 | 77 | 1010.3 |
| 20260901123106 | 65 | 281 | 10.0 | 15.0 | 0.00 | 0.37 | 0.09 | 77 | 1010.3 |
| 20260901121804 | 66 | 266 | 10.0 | 12.0 | 0.00 | 2.46 | 0.09 | 78 | 1010.2 |
| 20260901121611 | 66 | 259 | 9.0 | 12.0 | 0.00 | 0.37 | 0.09 | 77 | 1010.2 |
| 20260901121304 | 66 | 253 | 10.0 | 12.0 | 0.00 | 2.46 | 0.09 | 77 | 1010.2 |
| 20260901120804 | 67 | 256 | 7.0 | 10.0 | 0.00 | 2.46 | 0.09 | 78 | 1010.2 |
| 20260901120111 | 66 | 253 | 5.0 | 10.0 | 0.00 | 0.37 | 0.09 | 76 | 1010.2 |
| 20260901114804 | 66 | 287 | 6.0 | 9.0 | 0.00 | 2.46 | 0.09 | 78 | 1010.2 |
| 20260901114605 | 65 | 270 | 6.0 | 10.0 | 0.00 | 0.37 | 0.09 | 77 | 1010.1 |
| 20260901114304 | 66 | 266 | 6.0 | 9.0 | 0.00 | 2.46 | 0.09 | 77 | 1010.2 |
| 20260901113804 | 66 | 265 | 6.0 | 10.0 | 0.00 | 2.46 | 0.09 | 77 | 1010.2 |
| 20260901113304 | 66 | 294 | 8.0 | 12.0 | 0.00 | 2.46 | 0.09 | 78 | 1010.1 |
| 20260901113106 | 65 | 245 | 7.0 | 11.0 | 0.00 | 0.37 | 0.09 | 77 | 1010.1 |
| 20260901111804 | 65 | 248 | 6.0 | 10.0 | 0.00 | 2.46 | 0.09 | 79 | 1010.0 |
| 20260901111607 | 65 | 256 | 7.0 | 11.0 | 0.00 | 0.37 | 0.09 | 79 | 1010.0 |
| 20260901110803 | 65 | 278 | 7.0 | 12.0 | 0.00 | 2.46 | 0.09 | 78 | 1010.0 |
| 20260901110108 | 64 | 282 | 7.0 | 11.0 | 0.00 | 0.37 | 0.09 | 78 | 1010.0 |
| 20260901104804 | 64 | 263 | 8.0 | 12.0 | 0.00 | 2.46 | 0.09 | 79 | 1009.9 |
| 20260901104605 | 64 | 253 | 8.0 | 11.0 | 0.00 | 0.37 | 0.09 | 78 | 1009.8 |
| 20260901104304 | 64 | 269 | 9.0 | 12.0 | 0.00 | 2.46 | 0.09 | 79 | 1009.9 |
| 20260901103804 | 64 | 275 | 9.0 | 12.0 | 0.00 | 2.46 | 0.09 | 79 | 1009.8 |
| 20260901103304 | 64 | 266 | 10.0 | 12.0 | 0.00 | 2.46 | 0.09 | 80 | 1009.8 |
| 20260901103105 | 64 | 277 | 7.0 | 12.0 | 0.00 | 0.37 | 0.09 | 79 | 1009.7 |
| 20260901101804 | 64 | 302 | 10.0 | 12.0 | 0.00 | 2.36 | 0.09 | 80 | 1009.7 |
| 20260901101609 | 63 | 285 | 7.0 | 13.0 | 0.00 | 0.37 | 0.09 | 80 | 1009.5 |
| 20260901101304 | 64 | 276 | 9.0 | 13.0 | 0.00 | 2.36 | 0.09 | 80 | 1009.6 |
| 20260901100804 | 64 | 279 | 7.0 | 13.0 | 0.00 | 2.36 | 0.09 | 80 | 1009.5 |
| 20260901100111 | 64 | 278 | 8.0 | 13.0 | 0.00 | 0.37 | 0.09 | 80 | 1009.4 |
| 20260901094804 | 64 | 307 | 8.0 | 12.0 | 0.00 | 2.36 | 0.09 | 81 | 1009.3 |
| 20260901094603 | 63 | 318 | 8.0 | 12.0 | 0.00 | 0.37 | 0.09 | 81 | 1009.3 |
| 20260901093803 | 64 | 290 | 9.0 | 12.0 | 0.00 | 2.36 | 0.09 | 81 | 1009.1 |
| 20260901093305 | 64 | 289 | 9.0 | 12.0 | 0.00 | 2.36 | 0.09 | 81 | 1009.1 |
| 20260901093107 | 64 | 283 | 7.0 | 11.0 | 0.00 | 0.37 | 0.09 | 80 | 1009.0 |
| 20260901091804 | 64 | 291 | 7.0 | 10.0 | 0.00 | 2.36 | 0.09 | 81 | 1008.9 |
| 20260901091607 | 63 | 310 | 7.0 | 10.0 | 0.00 | 0.37 | 0.09 | 80 | 1008.8 |
| 20260901091304 | 64 | 292 | 7.0 | 10.0 | 0.00 | 2.36 | 0.09 | 81 | 1008.8 |
| 20260901090804 | 64 | 283 | 7.0 | 10.0 | 0.00 | 2.36 | 0.09 | 82 | 1008.7 |
| 20260901090304 | 64 | 286 | 9.0 | 12.0 | 0.00 | 2.36 | 0.09 | 82 | 1008.8 |
| 20260901090106 | 63 | 281 | 7.0 | 11.0 | 0.00 | 0.37 | 0.09 | 82 | 1008.7 |
| 20260901084806 | 63 | 310 | 6.0 | 12.0 | 0.00 | 2.36 | 0.09 | 83 | 1008.8 |
| 20260901084626 | 63 | 293 | 8.0 | 11.0 | 0.00 | 0.37 | 0.09 | 82 | 1008.6 |
| 20260901084304 | 63 | 301 | 8.0 | 12.0 | 0.00 | 2.36 | 0.09 | 83 | 1008.8 |
| 20260901083107 | 63 | 305 | 10.0 | 13.0 | 0.00 | 0.37 | 0.09 | 83 | 1008.8 |
| 20260901081803 | 63 | 285 | 7.0 | 12.0 | 0.00 | 2.36 | 0.09 | 84 | 1008.7 |
| 20260901081608 | 62 | 310 | 9.0 | 12.0 | 0.00 | 0.37 | 0.09 | 83 | 1008.6 |
| 20260901081304 | 63 | 299 | 10.0 | 12.0 | 0.00 | 2.36 | 0.09 | 84 | 1008.6 |
| 20260901080804 | 63 | 295 | 8.0 | 12.0 | 0.00 | 2.36 | 0.09 | 84 | 1008.6 |
| 20260901080304 | 63 | 283 | 9.0 | 12.0 | 0.09 | 2.36 | 0.09 | 85 | 1008.5 |
| 20260901080115 | 63 | 319 | 7.0 | 10.0 | 0.00 | 0.37 | 0.09 | 85 | 1008.4 |
| 20260901074804 | 62 | 299 | 5.0 | 12.0 | 0.00 | 2.36 | 0.09 | 86 | 1008.5 |
| 20260901074633 | 62 | 305 | 8.0 | 13.0 | 0.00 | 0.37 | 0.09 | 85 | 1008.4 |
| 20260901074304 | 62 | 308 | 10.0 | 13.0 | 0.00 | 2.36 | 0.09 | 86 | 1008.4 |
| 20260901073804 | 62 | 322 | 7.0 | 12.0 | 0.00 | 2.36 | 0.09 | 86 | 1008.4 |
| 20260901073304 | 62 | 307 | 8.0 | 10.0 | 0.00 | 2.36 | 0.09 | 86 | 1008.4 |
| 20260901073106 | 61 | 305 | 7.0 | 10.0 | 0.00 | 0.37 | 0.09 | 86 | 1008.4 |
| 20260901071608 | 61 | 326 | 5.0 | 10.0 | 0.00 | 0.37 | 0.09 | 86 | 1008.2 |
| 20260901070804 | 62 | 309 | 7.0 | 10.0 | 0.00 | 2.17 | 0.09 | 87 | 1008.3 |
| 20260901070304 | 62 | 310 | 8.0 | 12.0 | 0.00 | 2.08 | 0.00 | 87 | 1008.3 |
| 20260901070107 | 61 | 327 | 8.0 | 12.0 | 0.00 | 0.37 | 0.09 | 87 | 1008.3 |
| 20260901064804 | 62 | 304 | 7.0 | 12.0 | 0.00 | 2.08 | 0.09 | 88 | 1008.1 |
| 20260901064607 | 61 | 310 | 7.0 | 12.0 | 0.00 | 0.37 | 0.09 | 87 | 1008.0 |
| 20260901063803 | 61 | 305 | 9.0 | 12.0 | 0.00 | 2.08 | 0.09 | 88 | 1008.0 |
| 20260901063304 | 61 | 303 | 9.0 | 12.0 | 0.00 | 2.08 | 0.09 | 88 | 1007.9 |
| 20260901063106 | 61 | 296 | 9.0 | 11.0 | 0.00 | 0.37 | 0.09 | 87 | 1007.9 |
| 20260901061611 | 61 | 305 | 9.0 | 12.0 | 0.00 | 0.37 | 0.09 | 87 | 1007.8 |
| 20260901061304 | 61 | 302 | 7.0 | 12.0 | 0.00 | 2.08 | 0.09 | 88 | 1007.8 |
| 20260901060804 | 61 | 297 | 8.0 | 12.0 | 0.00 | 2.08 | 0.09 | 88 | 1007.8 |
| 20260901060304 | 61 | 303 | 7.0 | 12.0 | 0.00 | 2.08 | 0.09 | 88 | 1007.7 |
| 20260901060111 | 60 | 305 | 8.0 | 12.0 | 0.00 | 0.37 | 0.09 | 88 | 1007.7 |
| 20260901054804 | 61 | 315 | 7.0 | 12.0 | 0.00 | 2.08 | 0.09 | 88 | 1007.8 |
| 20260901054606 | 60 | 292 | 9.0 | 12.0 | 0.00 | 0.37 | 0.09 | 88 | 1007.7 |
| 20260901054304 | 61 | 305 | 9.0 | 12.0 | 0.00 | 2.08 | 0.09 | 88 | 1007.7 |
| 20260901053803 | 61 | 304 | 9.0 | 12.0 | 0.00 | 2.08 | 0.09 | 88 | 1007.6 |
| 20260901053305 | 61 | 306 | 7.0 | 12.0 | 0.00 | 2.08 | 0.09 | 88 | 1007.7 |
| 20260901053107 | 60 | 305 | 8.0 | 12.0 | 0.00 | 0.37 | 0.09 | 88 | 1007.5 |
| 20260901051804 | 61 | 309 | 7.0 | 9.0 | 0.00 | 2.08 | 0.09 | 88 | 1007.5 |
| 20260901051614 | 60 | 310 | 5.0 | 10.0 | 0.00 | 0.37 | 0.09 | 88 | 1007.5 |
| 20260901051304 | 61 | 315 | 6.0 | 10.0 | 0.00 | 2.08 | 0.09 | 88 | 1007.5 |
| 20260901050805 | 61 | 331 | 6.0 | 9.0 | 0.00 | 1.98 | 0.09 | 88 | 1007.5 |
| 20260901050304 | 61 | 328 | 6.0 | 9.0 | 0.00 | 1.98 | 0.09 | 88 | 1007.5 |
| 20260901050108 | 60 | 330 | 5.0 | 9.0 | 0.00 | 0.37 | 0.09 | 88 | 1007.4 |
| 20260901044804 | 61 | 328 | 6.0 | 9.0 | 0.00 | 1.98 | 0.09 | 88 | 1007.5 |
| 20260901044607 | 60 | 323 | 5.0 | 9.0 | 0.00 | 0.37 | 0.09 | 88 | 1007.3 |
| 20260901044303 | 61 | 322 | 6.0 | 9.0 | 0.00 | 1.98 | 0.09 | 88 | 1007.3 |
| 20260901043803 | 61 | 330 | 5.0 | 8.0 | 0.00 | 1.98 | 0.09 | 88 | 1007.2 |
| 20260901043305 | 61 | 332 | 6.0 | 9.0 | 0.00 | 1.98 | 0.09 | 88 | 1007.2 |
| 20260901043109 | 60 | 333 | 5.0 | 9.0 | 0.00 | 0.37 | 0.09 | 88 | 1007.2 |
| 20260901041621 | 60 | 345 | 3.0 | 6.0 | 0.00 | 0.37 | 0.09 | 88 | 1007.1 |
| 20260901040804 | 61 | 345 | 5.0 | 6.0 | 0.00 | 1.98 | 0.09 | 88 | 1007.1 |
| 20260901040304 | 61 | 345 | 5.0 | 8.0 | 0.00 | 1.98 | 0.09 | 88 | 1007.0 |
| 20260901040139 | 60 | 345 | 4.0 | 8.0 | 0.00 | 0.37 | 0.09 | 88 | 1007.1 |
| 20260901034804 | 61 | 339 | 6.0 | 8.0 | 0.00 | 1.98 | 0.09 | 88 | 1007.0 |
| 20260901034613 | 60 | 340 | 5.0 | 10.0 | 0.00 | 0.37 | 0.09 | 88 | 1006.9 |
| 20260901034304 | 61 | 338 | 6.0 | 7.0 | 0.00 | 1.98 | 0.09 | 88 | 1006.9 |
| 20260901033804 | 61 | 347 | 6.0 | 10.0 | 0.00 | 1.98 | 0.09 | 88 | 1007.0 |
| 20260901033304 | 61 | 341 | 6.0 | 9.0 | 0.00 | 1.98 | 0.09 | 88 | 1007.0 |
| 20260901033103 | 61 | 331 | 5.0 | 9.0 | 0.00 | 0.37 | 0.09 | 88 | 1006.8 |
| 20260901031804 | 61 | 354 | 4.0 | 6.0 | 0.00 | 1.98 | 0.09 | 88 | 1006.9 |
| 20260901031604 | 61 | 359 | 4.0 | 7.0 | 0.00 | 0.37 | 0.09 | 88 | 1006.8 |
| 20260901030304 | 61 | 2 | 6.0 | 9.0 | 0.01 | 1.98 | 0.09 | 88 | 1006.8 |
| 20260901030112 | 61 | 2 | 6.0 | 9.0 | 0.00 | 0.37 | 0.09 | 88 | 1006.8 |
| 20260901024804 | 61 | 357 | 4.0 | 8.0 | 0.01 | 1.98 | 0.09 | 88 | 1006.8 |
| 20260901024608 | 61 | 8 | 5.0 | 8.0 | 0.00 | 0.37 | 0.09 | 88 | 1006.7 |
| 20260901024304 | 61 | 5 | 5.0 | 8.0 | 0.01 | 1.98 | 0.09 | 88 | 1006.7 |
| 20260901023304 | 61 | 7 | 6.0 | 12.0 | 0.01 | 1.98 | 0.09 | 88 | 1006.6 |
| 20260901023107 | 61 | 339 | 6.0 | 11.0 | 0.00 | 0.37 | 0.09 | 88 | 1006.5 |
| 20260901021804 | 61 | 357 | 7.0 | 10.0 | 0.01 | 1.98 | 0.09 | 88 | 1006.5 |
| 20260901021603 | 61 | 17 | 6.0 | 11.0 | 0.00 | 0.37 | 0.09 | 88 | 1006.4 |
| 20260901021304 | 61 | 352 | 8.0 | 12.0 | 0.02 | 1.98 | 0.09 | 88 | 1006.4 |
| 20260901020804 | 61 | 0 | 6.0 | 10.0 | 0.02 | 1.98 | 0.09 | 88 | 1006.5 |
| 20260901020304 | 61 | 0 | 6.0 | 10.0 | 0.02 | 1.98 | 0.09 | 88 | 1006.4 |
| 20260901020111 | 60 | 351 | 5.0 | 10.0 | 0.01 | 0.36 | 0.08 | 88 | 1006.5 |
| 20260901014804 | 61 | 2 | 2.0 | 3.0 | 0.02 | 1.98 | 0.09 | 88 | 1006.4 |
| 20260901014609 | 60 | 2 | 2.0 | 6.0 | 0.02 | 0.36 | 0.08 | 88 | 1006.4 |
| 20260901013804 | 61 | 358 | 2.0 | 6.0 | 0.03 | 1.98 | 0.09 | 88 | 1006.4 |
| 20260901013107 | 60 | 296 | 0.0 | 4.0 | 0.06 | 0.36 | 0.08 | 88 | 1006.3 |
| 20260901011603 | 61 | 296 | 2.0 | 6.0 | 0.08 | 0.36 | 0.08 | 88 | 1006.3 |
| 20260901011304 | 61 | 296 | 3.0 | 5.0 | 0.08 | 1.97 | 0.08 | 88 | 1006.2 |
| 20260901010303 | 61 | 296 | 6.0 | 8.0 | 0.07 | 1.96 | 0.07 | 88 | 1006.3 |
| 20260901010116 | 61 | 296 | 4.0 | 8.0 | 0.07 | 0.34 | 0.07 | 88 | 1006.3 |
| 20260901004804 | 62 | 270 | 3.0 | 3.0 | 0.06 | 1.95 | 0.06 | 88 | 1006.4 |
| 20260901004610 | 61 | 270 | 2.0 | 6.0 | 0.06 | 0.33 | 0.06 | 88 | 1006.3 |
| 20260901004304 | 62 | 270 | 3.0 | 3.0 | 0.06 | 1.95 | 0.06 | 88 | 1006.3 |
| 20260901003804 | 62 | 270 | 5.0 | 6.0 | 0.06 | 1.94 | 0.06 | 88 | 1006.2 |
| 20260901003304 | 62 | 283 | 6.0 | 12.0 | 0.03 | 1.92 | 0.03 | 88 | 1006.3 |
| 20260901003107 | 61 | 282 | 7.0 | 11.0 | 0.02 | 0.29 | 0.02 | 88 | 1006.2 |
| 20260901001804 | 61 | 280 | 6.0 | 9.0 | 0.00 | 1.89 | 0.00 | 88 | 1006.3 |
| 20260901001606 | 61 | 272 | 5.0 | 9.0 | 0.00 | 0.27 | 0.00 | 88 | 1006.2 |
| 20260901001305 | 61 | 276 | 5.0 | 9.0 | 0.00 | 1.89 | 0.00 | 88 | 1006.2 |
| 20260901000804 | 60 | 272 | 5.0 | 8.0 | 0.00 | 1.89 | 0.00 | 88 | 1006.2 |
| 20260901000111 | 60 | 273 | 5.0 | 9.0 | 0.00 | 0.27 | 0.00 | 88 | 1006.2 |
| 20260831234804 | 60 | 276 | 6.0 | 9.0 | 0.00 | 1.89 | 0.00 | 88 | 1006.3 |
| 20260831234606 | 59 | 268 | 5.0 | 9.0 | 0.00 | 0.27 | 0.00 | 88 | 1006.2 |
| 20260831234304 | 60 | 277 | 6.0 | 8.0 | 0.00 | 1.89 | 0.00 | 88 | 1006.2 |
| 20260831233804 | 60 | 275 | 4.0 | 6.0 | 0.00 | 1.89 | 0.00 | 88 | 1006.3 |
| 20260831233306 | 60 | 275 | 5.0 | 8.0 | 0.00 | 1.89 | 0.00 | 88 | 1006.3 |
| 20260831233118 | 59 | 275 | 5.0 | 8.0 | 0.00 | 0.27 | 0.00 | 88 | 1006.2 |
| 20260831231804 | 59 | 239 | 3.0 | 5.0 | 0.00 | 1.89 | 0.00 | 88 | 1006.3 |
| 20260831231608 | 59 | 274 | 2.0 | 6.0 | 0.00 | 0.27 | 0.00 | 88 | 1006.3 |
| 20260831231304 | 59 | 258 | 2.0 | 6.0 | 0.00 | 1.89 | 0.00 | 88 | 1006.3 |
| 20260831230804 | 59 | 274 | 3.0 | 6.0 | 0.00 | 1.89 | 0.00 | 88 | 1006.3 |
| 20260831230115 | 59 | 272 | 4.0 | 6.0 | 0.00 | 0.27 | 0.00 | 88 | 1006.3 |
| 20260831224803 | 60 | 242 | 2.0 | 3.0 | 0.00 | 1.89 | 0.00 | 88 | 1006.3 |
| 20260831224606 | 59 | 242 | 2.0 | 6.0 | 0.00 | 0.27 | 0.00 | 88 | 1006.2 |
| 20260831224304 | 60 | 237 | 2.0 | 3.0 | 0.00 | 1.89 | 0.00 | 88 | 1006.2 |
| 20260831223304 | 60 | 237 | 2.0 | 7.0 | 0.00 | 1.89 | 0.00 | 88 | 1006.4 |
| 20260831223111 | 59 | 237 | 1.0 | 4.0 | 0.00 | 0.27 | 0.00 | 87 | 1006.2 |
| 20260831221608 | 59 | 220 | 4.0 | 7.0 | 0.00 | 0.27 | 0.00 | 87 | 1006.2 |
| 20260831221304 | 60 | 220 | 5.0 | 7.0 | 0.00 | 1.89 | 0.00 | 88 | 1006.2 |
| 20260831220839 | 60 | 208 | 5.0 | 7.0 | 0.00 | 1.89 | 0.00 | 88 | 1006.2 |
| 20260831220304 | 60 | 204 | 6.0 | 8.0 | 0.28 | 1.89 | 0.00 | 88 | 1006.2 |
| 20260831220106 | 59 | 216 | 6.0 | 8.0 | 0.00 | 0.27 | 0.00 | 87 | 1006.1 |
| 20260831214804 | 60 | 160 | 3.0 | 3.0 | 0.00 | 1.89 | 0.28 | 88 | 1006.2 |
| 20260831214611 | 59 | 160 | 3.0 | 5.0 | 0.00 | 0.27 | 0.27 | 87 | 1006.1 |
| 20260831213305 | 60 | 160 | 3.0 | 5.0 | 0.00 | 1.89 | 0.28 | 88 | 1006.1 |
| 20260831213109 | 59 | 160 | 3.0 | 5.0 | 0.00 | 0.27 | 0.27 | 87 | 1005.9 |
| 20260831211804 | 60 | 160 | 3.0 | 5.0 | 0.00 | 1.89 | 0.28 | 88 | 1006.0 |
| 20260831211613 | 59 | 160 | 3.0 | 8.0 | 0.00 | 0.27 | 0.27 | 87 | 1006.0 |
| 20260831211303 | 60 | 160 | 5.0 | 7.0 | 0.00 | 1.89 | 0.28 | 88 | 1006.0 |
| 20260831210304 | 60 | 160 | 6.0 | 8.0 | 0.00 | 1.61 | 0.28 | 88 | 1006.0 |
| 20260831210104 | 59 | 160 | 6.0 | 8.0 | 0.00 | 0.27 | 0.27 | 87 | 1005.9 |